Time,TemperatureF,DewpointF,PressureIn,WindDirection,WindDirectionDegrees,WindSpeedMPH,WindSpeedGustMPH,Humidity,HourlyPrecipIn,Conditions,Clouds,dailyrainin,SoftwareType,DateUTC
2013-02-17 00:00:00,25.2,7.2,29.97,NNW,338,1.6,2.7,46,0.00,,,0.00,WUHU216TE923,2013-02-17 05:00:00,
2013-02-17 00:05:00,25.0,7.0,29.97,NNW,338,1.3,2.2,46,0.00,,,0.00,WUHU216TE923,2013-02-17 05:05:00,
2013-02-17 00:10:00,25.0,7.0,29.98,NNW,338,1.1,1.3,46,0.00,,,0.00,WUHU216TE923,2013-02-17 05:10:00,
2013-02-17 00:15:00,25.0,7.0,29.98,NNW,338,1.1,1.1,46,0.00,,,0.00,WUHU216TE923,2013-02-17 05:15:00,
2013-02-17 00:20:00,25.0,7.0,29.98,NNW,338,1.0,1.1,46,0.00,,,0.00,WUHU216TE923,2013-02-17 05:20:00,
2013-02-17 00:25:00,24.8,6.3,29.98,NNW,338,0.5,1.4,45,0.00,,,0.00,WUHU216TE923,2013-02-17 05:25:00,
2013-02-17 00:30:00,24.8,6.3,29.99,NNW,338,0.4,1.8,45,0.00,,,0.00,WUHU216TE923,2013-02-17 05:30:00,
2013-02-17 00:35:00,24.8,6.3,29.99,NNW,338,0.9,2.6,45,0.00,,,0.00,WUHU216TE923,2013-02-17 05:35:00,
2013-02-17 00:40:00,24.6,6.1,29.99,NNW,338,1.2,4.5,45,0.00,,,0.00,WUHU216TE923,2013-02-17 05:40:00,
2013-02-17 00:45:00,24.4,6.0,29.99,NNW,338,1.0,4.5,45,0.00,,,0.00,WUHU216TE923,2013-02-17 05:45:00,
2013-02-17 00:50:00,24.6,6.1,29.99,NNW,338,1.2,1.6,45,0.00,,,0.00,WUHU216TE923,2013-02-17 05:50:00,
2013-02-17 00:55:00,24.6,6.1,29.99,NNW,338,1.1,1.9,45,0.00,,,0.00,WUHU216TE923,2013-02-17 05:55:00,
2013-02-17 01:00:00,24.4,5.4,29.99,NNW,338,0.9,1.9,44,0.00,,,0.00,WUHU216TE923,2013-02-17 06:00:00,
2013-02-17 01:05:00,24.4,5.4,29.99,NNW,338,0.7,1.2,44,0.00,,,0.00,WUHU216TE923,2013-02-17 06:05:00,
2013-02-17 01:10:00,24.4,5.4,29.99,NNW,338,1.0,1.2,44,0.00,,,0.00,WUHU216TE923,2013-02-17 06:10:00,
2013-02-17 01:15:00,24.4,5.4,29.99,NNW,338,1.0,2.1,44,0.00,,,0.00,WUHU216TE923,2013-02-17 06:15:00,
2013-02-17 01:20:00,24.4,4.9,29.99,NNW,338,1.3,2.1,43,0.00,,,0.00,WUHU216TE923,2013-02-17 06:20:00,
2013-02-17 01:25:00,24.3,5.4,29.99,NNW,338,1.3,1.8,44,0.00,,,0.00,WUHU216TE923,2013-02-17 06:25:00,
2013-02-17 01:30:00,24.4,4.9,29.99,NNW,338,1.3,2.0,43,0.00,,,0.00,WUHU216TE923,2013-02-17 06:30:00,
2013-02-17 01:35:00,24.3,4.8,29.99,NNW,338,1.5,2.0,43,0.00,,,0.00,WUHU216TE923,2013-02-17 06:35:00,
2013-02-17 01:40:00,24.3,4.8,29.99,NNW,338,1.5,2.5,43,0.00,,,0.00,WUHU216TE923,2013-02-17 06:40:00,
2013-02-17 01:45:00,24.3,4.8,29.99,NNW,338,1.7,2.5,43,0.00,,,0.00,WUHU216TE923,2013-02-17 06:45:00,
2013-02-17 01:50:00,24.1,4.7,29.99,NNW,338,1.2,1.9,43,0.00,,,0.00,WUHU216TE923,2013-02-17 06:50:00,
2013-02-17 01:55:00,24.1,5.2,29.99,NNW,338,0.8,1.2,44,0.00,,,0.00,WUHU216TE923,2013-02-17 06:55:00,
2013-02-17 02:00:00,23.9,5.0,29.99,NNW,338,0.8,2.4,44,0.00,,,0.00,WUHU216TE923,2013-02-17 07:00:00,
2013-02-17 02:05:00,23.9,5.0,29.99,NNW,338,0.9,2.4,44,0.00,,,0.00,WUHU216TE923,2013-02-17 07:05:00,
2013-02-17 02:10:00,23.9,5.0,30.00,NNW,338,0.7,1.3,44,0.00,,,0.00,WUHU216TE923,2013-02-17 07:10:00,
2013-02-17 02:15:00,23.7,4.8,30.00,NNW,338,0.5,0.7,44,0.00,,,0.00,WUHU216TE923,2013-02-17 07:15:00,
2013-02-17 02:20:00,23.5,5.1,30.00,NNW,338,0.6,0.6,45,0.00,,,0.00,WUHU216TE923,2013-02-17 07:20:00,
2013-02-17 02:25:00,23.5,4.6,30.00,NNW,338,0.5,0.6,44,0.00,,,0.00,WUHU216TE923,2013-02-17 07:25:00,
2013-02-17 02:30:00,23.5,4.6,30.00,NNW,338,0.1,0.5,44,0.00,,,0.00,WUHU216TE923,2013-02-17 07:30:00,
2013-02-17 02:35:00,23.4,4.5,30.00,NNW,338,0.0,0.1,44,0.00,,,0.00,WUHU216TE923,2013-02-17 07:35:00,
2013-02-17 02:40:00,23.2,4.9,30.00,NNW,338,0.1,0.1,45,0.00,,,0.00,WUHU216TE923,2013-02-17 07:40:00,
2013-02-17 02:45:00,23.2,4.9,30.00,NNW,338,0.1,0.1,45,0.00,,,0.00,WUHU216TE923,2013-02-17 07:45:00,
2013-02-17 02:50:00,23.2,4.9,30.01,NNW,338,0.0,0.1,45,0.00,,,0.00,WUHU216TE923,2013-02-17 07:50:00,
2013-02-17 02:55:00,23.2,4.9,30.01,NNW,338,0.0,0.0,45,0.00,,,0.00,WUHU216TE923,2013-02-17 07:55:00,
2013-02-17 03:00:00,23.0,5.2,30.01,NNW,338,0.0,0.0,46,0.00,,,0.00,WUHU216TE923,2013-02-17 08:00:00,
2013-02-17 03:05:00,23.0,5.2,30.01,NNW,338,0.1,0.1,46,0.00,,,0.00,WUHU216TE923,2013-02-17 08:05:00,
2013-02-17 03:10:00,22.8,5.0,30.00,NNW,338,0.1,0.1,46,0.00,,,0.00,WUHU216TE923,2013-02-17 08:10:00,
2013-02-17 03:15:00,22.8,5.0,30.00,NNW,338,0.1,0.1,46,0.00,,,0.00,WUHU216TE923,2013-02-17 08:15:00,
2013-02-17 03:20:00,22.6,5.3,30.00,NNW,338,0.0,0.1,47,0.00,,,0.00,WUHU216TE923,2013-02-17 08:20:00,
2013-02-17 03:25:00,22.5,5.2,30.00,NNW,338,0.0,0.0,47,0.00,,,0.00,WUHU216TE923,2013-02-17 08:25:00,
2013-02-17 03:30:00,22.3,5.0,30.00,NNW,338,0.0,0.0,47,0.00,,,0.00,WUHU216TE923,2013-02-17 08:30:00,
2013-02-17 03:35:00,22.3,5.0,30.00,NNW,338,0.0,0.0,47,0.00,,,0.00,WUHU216TE923,2013-02-17 08:35:00,
2013-02-17 03:40:00,21.9,5.1,30.00,NNW,338,0.0,0.0,48,0.00,,,0.00,WUHU216TE923,2013-02-17 08:40:00,
2013-02-17 03:45:00,21.9,5.1,30.00,NNW,338,0.0,0.0,48,0.00,,,0.00,WUHU216TE923,2013-02-17 08:45:00,
2013-02-17 03:50:00,21.7,4.9,30.00,NNW,338,0.0,0.0,48,0.00,,,0.00,WUHU216TE923,2013-02-17 08:50:00,
2013-02-17 03:55:00,21.6,5.3,30.00,NNW,338,0.0,0.0,49,0.00,,,0.00,WUHU216TE923,2013-02-17 08:55:00,
2013-02-17 04:00:00,21.6,5.3,30.00,NNW,338,0.0,0.0,49,0.00,,,0.00,WUHU216TE923,2013-02-17 09:00:00,
2013-02-17 04:05:00,21.4,5.1,30.00,NNW,338,0.0,0.0,49,0.00,,,0.00,WUHU216TE923,2013-02-17 09:05:00,
2013-02-17 04:10:00,21.4,5.1,30.00,NNW,338,0.0,0.0,49,0.00,,,0.00,WUHU216TE923,2013-02-17 09:10:00,
2013-02-17 04:15:00,21.4,5.1,30.00,NNW,338,0.0,0.0,49,0.00,,,0.00,WUHU216TE923,2013-02-17 09:15:00,
2013-02-17 04:20:00,21.4,5.1,30.00,NNW,338,0.0,0.0,49,0.00,,,0.00,WUHU216TE923,2013-02-17 09:20:00,
2013-02-17 04:25:00,21.2,4.9,30.00,NNW,338,0.0,0.0,49,0.00,,,0.00,WUHU216TE923,2013-02-17 09:25:00,
2013-02-17 04:30:00,21.0,5.2,30.00,NNW,338,0.0,0.0,50,0.00,,,0.00,WUHU216TE923,2013-02-17 09:30:00,
2013-02-17 04:35:00,21.0,5.2,30.00,NNW,338,0.0,0.0,50,0.00,,,0.00,WUHU216TE923,2013-02-17 09:35:00,
2013-02-17 04:40:00,20.8,5.0,30.00,NNW,338,0.0,0.0,50,0.00,,,0.00,WUHU216TE923,2013-02-17 09:40:00,
2013-02-17 04:45:00,20.8,5.0,30.00,NNW,338,0.0,0.0,50,0.00,,,0.00,WUHU216TE923,2013-02-17 09:45:00,
2013-02-17 04:50:00,20.5,5.2,30.01,NNW,338,0.0,0.0,51,0.00,,,0.00,WUHU216TE923,2013-02-17 09:50:00,
2013-02-17 04:55:00,20.5,5.2,30.01,NNW,338,0.0,0.0,51,0.00,,,0.00,WUHU216TE923,2013-02-17 09:55:00,
2013-02-17 05:00:00,20.3,5.0,30.01,NNW,338,0.0,0.0,51,0.00,,,0.00,WUHU216TE923,2013-02-17 10:00:00,
2013-02-17 05:05:00,20.1,4.8,30.01,NNW,338,0.0,0.0,51,0.00,,,0.00,WUHU216TE923,2013-02-17 10:05:00,
2013-02-17 05:10:00,20.1,5.2,30.01,NNW,338,0.0,0.0,52,0.00,,,0.00,WUHU216TE923,2013-02-17 10:10:00,
2013-02-17 05:15:00,19.9,5.1,30.01,NNW,338,0.0,0.0,52,0.00,,,0.00,WUHU216TE923,2013-02-17 10:15:00,
2013-02-17 05:20:00,19.8,5.0,30.01,NNW,338,0.0,0.0,52,0.00,,,0.00,WUHU216TE923,2013-02-17 10:20:00,
2013-02-17 05:25:00,19.8,5.0,30.01,NNW,338,0.0,0.0,52,0.00,,,0.00,WUHU216TE923,2013-02-17 10:25:00,
2013-02-17 05:30:00,19.9,5.5,30.01,NNW,338,0.0,0.0,53,0.00,,,0.00,WUHU216TE923,2013-02-17 10:30:00,
2013-02-17 05:35:00,19.8,5.4,30.01,NNW,338,0.0,0.0,53,0.00,,,0.00,WUHU216TE923,2013-02-17 10:35:00,
2013-02-17 05:40:00,19.8,5.4,30.01,NNW,338,0.0,0.0,53,0.00,,,0.00,WUHU216TE923,2013-02-17 10:40:00,
2013-02-17 05:45:00,19.6,5.2,30.01,NNW,338,0.0,0.0,53,0.00,,,0.00,WUHU216TE923,2013-02-17 10:45:00,
2013-02-17 05:50:00,19.4,5.0,30.02,NNW,338,0.0,0.0,53,0.00,,,0.00,WUHU216TE923,2013-02-17 10:50:00,
2013-02-17 05:55:00,19.4,5.4,30.02,NNW,338,0.0,0.0,54,0.00,,,0.00,WUHU216TE923,2013-02-17 10:55:00,
2013-02-17 06:00:00,19.2,5.2,30.02,NNW,338,0.0,0.0,54,0.00,,,0.00,WUHU216TE923,2013-02-17 11:00:00,
2013-02-17 06:05:00,19.4,5.4,30.02,NNW,338,0.0,0.0,54,0.00,,,0.00,WUHU216TE923,2013-02-17 11:05:00,
2013-02-17 06:10:00,19.2,5.2,30.03,NNW,338,0.0,0.0,54,0.00,,,0.00,WUHU216TE923,2013-02-17 11:10:00,
2013-02-17 06:15:00,19.2,5.2,30.03,NNW,338,0.0,0.0,54,0.00,,,0.00,WUHU216TE923,2013-02-17 11:15:00,
2013-02-17 06:20:00,19.0,5.1,30.03,NNW,338,0.0,0.0,54,0.00,,,0.00,WUHU216TE923,2013-02-17 11:20:00,
2013-02-17 06:25:00,19.0,5.1,30.03,NNW,338,0.0,0.0,54,0.00,,,0.00,WUHU216TE923,2013-02-17 11:25:00,
2013-02-17 06:30:00,18.9,5.4,30.04,NNW,338,0.0,0.0,55,0.00,,,0.00,WUHU216TE923,2013-02-17 11:30:00,
2013-02-17 06:35:00,18.7,5.2,30.04,NNW,338,0.0,0.0,55,0.00,,,0.00,WUHU216TE923,2013-02-17 11:35:00,
2013-02-17 06:40:00,18.7,5.2,30.04,NNW,338,0.0,0.0,55,0.00,,,0.00,WUHU216TE923,2013-02-17 11:40:00,
2013-02-17 06:45:00,18.7,5.2,30.04,NNW,338,0.0,0.0,55,0.00,,,0.00,WUHU216TE923,2013-02-17 11:45:00,
2013-02-17 06:50:00,18.5,5.0,30.04,NNW,338,0.0,0.0,55,0.00,,,0.00,WUHU216TE923,2013-02-17 11:50:00,
2013-02-17 06:55:00,18.5,5.0,30.04,NNW,338,0.0,0.0,55,0.00,,,0.00,WUHU216TE923,2013-02-17 11:55:00,
2013-02-17 07:00:00,18.3,4.8,30.04,NNW,338,0.0,0.0,55,0.00,,,0.00,WUHU216TE923,2013-02-17 12:00:00,
2013-02-17 07:05:00,18.3,4.8,30.04,NNW,338,0.0,0.0,55,0.00,,,0.00,WUHU216TE923,2013-02-17 12:05:00,
2013-02-17 07:10:00,18.3,4.8,30.05,NNW,338,0.0,0.0,55,0.00,,,0.00,WUHU216TE923,2013-02-17 12:10:00,
2013-02-17 07:15:00,18.1,4.6,30.05,NNW,338,0.0,0.0,55,0.00,,,0.00,WUHU216TE923,2013-02-17 12:15:00,
2013-02-17 07:20:00,18.3,5.2,30.05,NNW,338,0.0,0.0,56,0.00,,,0.00,WUHU216TE923,2013-02-17 12:20:00,
2013-02-17 07:25:00,18.1,5.0,30.05,NNW,338,0.0,0.0,56,0.00,,,0.00,WUHU216TE923,2013-02-17 12:25:00,
2013-02-17 07:30:00,18.0,4.9,30.05,NNW,338,0.0,0.0,56,0.00,,,0.00,WUHU216TE923,2013-02-17 12:30:00,
2013-02-17 07:35:00,18.1,5.0,30.05,NNW,338,0.0,0.0,56,0.00,,,0.00,WUHU216TE923,2013-02-17 12:35:00,
2013-02-17 07:40:00,18.1,5.0,30.05,NNW,338,0.0,0.0,56,0.00,,,0.00,WUHU216TE923,2013-02-17 12:40:00,
2013-02-17 07:45:00,18.3,5.2,30.05,NNW,338,0.0,0.0,56,0.00,,,0.00,WUHU216TE923,2013-02-17 12:45:00,
2013-02-17 07:50:00,18.5,5.4,30.06,NNW,338,0.0,0.0,56,0.00,,,0.00,WUHU216TE923,2013-02-17 12:50:00,
2013-02-17 07:55:00,18.5,5.4,30.06,NNW,338,0.0,0.0,56,0.00,,,0.00,WUHU216TE923,2013-02-17 12:55:00,
2013-02-17 08:00:00,18.7,5.6,30.06,NNW,338,0.0,0.0,56,0.00,,,0.00,WUHU216TE923,2013-02-17 13:00:00,
2013-02-17 08:05:00,18.9,5.8,30.06,NNW,338,0.0,0.0,56,0.00,,,0.00,WUHU216TE923,2013-02-17 13:05:00,
2013-02-17 08:10:00,19.6,6.4,30.06,NNW,338,0.0,0.0,56,0.00,,,0.00,WUHU216TE923,2013-02-17 13:10:00,
2013-02-17 08:15:00,19.9,6.7,30.06,NNW,338,0.0,0.0,56,0.00,,,0.00,WUHU216TE923,2013-02-17 13:15:00,
2013-02-17 08:20:00,21.0,7.8,30.06,NNW,338,0.0,0.0,56,0.00,,,0.00,WUHU216TE923,2013-02-17 13:20:00,
2013-02-17 08:25:00,21.7,8.4,30.06,NNW,338,0.0,0.0,56,0.00,,,0.00,WUHU216TE923,2013-02-17 13:25:00,
2013-02-17 08:30:00,23.0,9.2,30.07,NNW,338,0.0,0.0,55,0.00,,,0.00,WUHU216TE923,2013-02-17 13:30:00,
2013-02-17 08:35:00,23.5,9.3,30.07,NNW,338,0.1,0.1,54,0.00,,,0.00,WUHU216TE923,2013-02-17 13:35:00,
2013-02-17 08:40:00,23.9,8.8,30.07,NNW,338,0.5,1.8,52,0.00,,,0.00,WUHU216TE923,2013-02-17 13:40:00,
2013-02-17 08:45:00,24.3,8.3,30.07,NNW,338,1.0,2.4,50,0.00,,,0.00,WUHU216TE923,2013-02-17 13:45:00,
2013-02-17 08:50:00,24.6,8.1,30.07,NNW,338,1.1,2.4,49,0.00,,,0.00,WUHU216TE923,2013-02-17 13:50:00,
2013-02-17 08:55:00,25.0,8.4,30.07,South,180,0.7,1.1,49,0.00,,,0.00,WUHU216TE923,2013-02-17 13:55:00,
2013-02-17 09:00:00,25.5,8.4,30.07,WNW,293,0.2,1.1,48,0.00,,,0.00,WUHU216TE923,2013-02-17 14:00:00,
2013-02-17 09:05:00,25.7,8.6,30.07,SSE,158,0.2,1.1,48,0.00,,,0.00,WUHU216TE923,2013-02-17 14:05:00,
2013-02-17 09:10:00,26.4,9.3,30.08,SE,135,0.1,0.2,48,0.00,,,0.00,WUHU216TE923,2013-02-17 14:10:00,
2013-02-17 09:15:00,26.8,9.1,30.08,NE,45,0.1,0.1,47,0.00,,,0.00,WUHU216TE923,2013-02-17 14:15:00,
2013-02-17 09:20:00,27.7,10.0,30.08,East,90,0.3,0.3,47,0.00,,,0.00,WUHU216TE923,2013-02-17 14:20:00,
2013-02-17 09:25:00,28.6,10.3,30.08,NNW,338,0.9,2.2,46,0.00,,,0.00,WUHU216TE923,2013-02-17 14:25:00,
2013-02-17 09:30:00,29.8,10.9,30.09,ENE,68,1.0,2.2,45,0.00,,,0.00,WUHU216TE923,2013-02-17 14:30:00,
2013-02-17 09:35:00,30.7,11.2,30.09,ESE,113,0.6,1.0,44,0.00,,,0.00,WUHU216TE923,2013-02-17 14:35:00,
2013-02-17 09:40:00,31.1,10.5,30.09,South,180,0.5,1.0,42,0.00,,,0.00,WUHU216TE923,2013-02-17 14:40:00,
2013-02-17 09:45:00,31.6,9.8,30.09,SSE,158,0.7,0.7,40,0.00,,,0.00,WUHU216TE923,2013-02-17 14:45:00,
2013-02-17 09:50:00,32.9,10.4,30.09,WNW,293,1.3,2.1,39,0.00,,,0.00,WUHU216TE923,2013-02-17 14:50:00,
2013-02-17 09:55:00,33.1,9.4,30.09,NNE,23,1.7,2.1,37,0.00,,,0.00,WUHU216TE923,2013-02-17 14:55:00,
2013-02-17 10:00:00,33.8,9.4,30.09,North,0,1.8,4.0,36,0.00,,,0.00,WUHU216TE923,2013-02-17 15:00:00,
2013-02-17 10:05:00,34.2,9.1,30.09,SW,225,1.8,4.0,35,0.00,,,0.00,WUHU216TE923,2013-02-17 15:05:00,
2013-02-17 10:10:00,34.5,8.8,30.10,NNE,23,2.2,4.3,34,0.00,,,0.00,WUHU216TE923,2013-02-17 15:10:00,
2013-02-17 10:15:00,34.7,8.3,30.10,NNW,338,2.7,6.7,33,0.00,,,0.00,WUHU216TE923,2013-02-17 15:15:00,
2013-02-17 10:20:00,35.6,9.1,30.10,ENE,68,2.7,6.7,33,0.00,,,0.00,WUHU216TE923,2013-02-17 15:20:00,
2013-02-17 10:25:00,36.0,8.7,30.10,NNE,23,2.3,2.7,32,0.00,,,0.00,WUHU216TE923,2013-02-17 15:25:00,
2013-02-17 10:30:00,36.5,9.2,30.11,NNE,23,2.5,6.9,32,0.00,,,0.00,WUHU216TE923,2013-02-17 15:30:00,
2013-02-17 10:35:00,36.7,8.7,30.11,NNW,338,2.7,6.9,31,0.00,,,0.00,WUHU216TE923,2013-02-17 15:35:00,
2013-02-17 10:40:00,37.2,9.1,30.11,North,0,2.9,5.1,31,0.00,,,0.00,WUHU216TE923,2013-02-17 15:40:00,
2013-02-17 10:45:00,37.2,9.1,30.11,NE,45,3.1,5.1,31,0.00,,,0.00,WUHU216TE923,2013-02-17 15:45:00,
2013-02-17 10:50:00,37.8,8.9,30.11,ENE,68,3.3,5.0,30,0.00,,,0.00,WUHU216TE923,2013-02-17 15:50:00,
2013-02-17 10:55:00,37.6,8.7,30.11,NW,315,3.1,4.9,30,0.00,,,0.00,WUHU216TE923,2013-02-17 15:55:00,
2013-02-17 11:00:00,37.8,8.9,30.11,NE,45,2.8,3.5,30,0.00,,,0.00,WUHU216TE923,2013-02-17 16:00:00,
2013-02-17 11:05:00,37.2,8.4,30.11,NE,45,3.1,3.6,30,0.00,,,0.00,WUHU216TE923,2013-02-17 16:05:00,
2013-02-17 11:10:00,38.7,9.7,30.11,North,0,3.3,6.0,30,0.00,,,0.00,WUHU216TE923,2013-02-17 16:10:00,
2013-02-17 11:15:00,38.8,9.8,30.11,NNE,23,3.2,6.6,30,0.00,,,0.00,WUHU216TE923,2013-02-17 16:15:00,
2013-02-17 11:21:00,38.5,8.8,30.11,NNE,23,3.7,6.6,29,0.00,,,0.00,WUHU216TE923,2013-02-17 16:21:00,
2013-02-17 11:26:00,39.2,8.6,30.11,NNE,23,3.9,6.7,28,0.00,,,0.00,WUHU216TE923,2013-02-17 16:26:00,
2013-02-17 11:31:00,39.9,9.2,30.11,North,0,3.8,6.7,28,0.00,,,0.00,WUHU216TE923,2013-02-17 16:31:00,
2013-02-17 11:36:00,41.0,10.2,30.11,NNE,23,3.4,5.1,28,0.00,,,0.00,WUHU216TE923,2013-02-17 16:36:00,
2013-02-17 11:41:00,41.0,10.2,30.11,NNE,23,3.4,4.1,28,0.00,,,0.00,WUHU216TE923,2013-02-17 16:41:00,
2013-02-17 11:46:00,41.2,8.7,30.11,NW,315,4.0,6.2,26,0.00,,,0.00,WUHU216TE923,2013-02-17 16:46:00,
2013-02-17 11:51:00,41.2,8.7,30.11,NW,315,4.0,6.2,26,0.00,,,0.00,WUHU216TE923,2013-02-17 16:51:00,
2013-02-17 11:56:00,42.3,9.7,30.11,NNE,23,3.3,8.5,26,0.00,,,0.00,WUHU216TE923,2013-02-17 16:56:00,
2013-02-17 12:01:00,42.3,9.7,30.11,NNE,23,3.3,8.5,26,0.00,,,0.00,WUHU216TE923,2013-02-17 17:01:00,
2013-02-17 12:06:00,42.8,10.1,30.10,ENE,68,3.3,6.9,26,0.00,,,0.00,WUHU216TE923,2013-02-17 17:06:00,
2013-02-17 12:11:00,42.8,10.1,30.10,ENE,68,3.3,6.9,26,0.00,,,0.00,WUHU216TE923,2013-02-17 17:11:00,
2013-02-17 12:16:00,42.6,9.1,30.10,East,90,4.4,5.8,25,0.00,,,0.00,WUHU216TE923,2013-02-17 17:16:00,
2013-02-17 12:21:00,42.6,9.1,30.10,East,90,4.4,5.8,25,0.00,,,0.00,WUHU216TE923,2013-02-17 17:21:00,
2013-02-17 12:28:00,42.6,8.2,30.10,NNE,23,4.2,6.6,24,0.00,,,0.00,WUHU216TE923,2013-02-17 17:28:00,
2013-02-17 12:33:00,41.7,6.5,30.10,WNW,293,4.2,6.6,23,0.00,,,0.00,WUHU216TE923,2013-02-17 17:33:00,
2013-02-17 12:38:00,42.3,7.9,30.10,NNW,338,3.7,4.2,24,0.00,,,0.00,WUHU216TE923,2013-02-17 17:38:00,
2013-02-17 12:43:00,43.0,9.4,30.10,NNW,338,3.6,4.0,25,0.00,,,0.00,WUHU216TE923,2013-02-17 17:43:00,
2013-02-17 12:48:00,42.4,7.1,30.09,NNE,23,3.9,5.1,23,0.00,,,0.00,WUHU216TE923,2013-02-17 17:48:00,
2013-02-17 12:53:00,41.9,6.7,30.09,NE,45,4.1,6.3,23,0.00,,,0.00,WUHU216TE923,2013-02-17 17:53:00,
2013-02-17 12:58:00,43.0,8.5,30.09,North,0,5.0,6.7,24,0.00,,,0.00,WUHU216TE923,2013-02-17 17:58:00,
2013-02-17 13:03:00,43.0,8.5,30.09,NNE,23,4.7,6.7,24,0.00,,,0.00,WUHU216TE923,2013-02-17 18:03:00,
2013-02-17 13:08:00,43.3,7.8,30.09,NW,315,4.0,7.8,23,0.00,,,0.00,WUHU216TE923,2013-02-17 18:08:00,
2013-02-17 13:13:00,42.4,7.1,30.09,NW,315,3.6,7.8,23,0.00,,,0.00,WUHU216TE923,2013-02-17 18:13:00,
2013-02-17 13:18:00,43.9,9.3,30.09,West,270,3.1,3.8,24,0.00,,,0.00,WUHU216TE923,2013-02-17 18:18:00,
2013-02-17 13:23:00,43.3,7.8,30.09,NNE,23,2.9,3.8,23,0.00,,,0.00,WUHU216TE923,2013-02-17 18:23:00,
2013-02-17 13:28:00,43.7,8.2,30.08,NW,315,3.2,4.2,23,0.00,,,0.00,WUHU216TE923,2013-02-17 18:28:00,
2013-02-17 13:33:00,44.2,8.6,30.08,WSW,248,3.5,4.2,23,0.00,,,0.00,WUHU216TE923,2013-02-17 18:33:00,
2013-02-17 13:38:00,44.2,8.6,30.08,NW,315,3.1,5.5,23,0.00,,,0.00,WUHU216TE923,2013-02-17 18:38:00,
2013-02-17 13:43:00,43.9,8.3,30.08,NNE,23,3.3,5.5,23,0.00,,,0.00,WUHU216TE923,2013-02-17 18:43:00,
2013-02-17 13:48:00,44.2,8.6,30.08,NNE,23,3.1,5.4,23,0.00,,,0.00,WUHU216TE923,2013-02-17 18:48:00,
2013-02-17 13:53:00,45.5,8.7,30.08,NE,45,2.7,3.1,22,0.00,,,0.00,WUHU216TE923,2013-02-17 18:53:00,
2013-02-17 13:58:00,45.9,9.1,30.08,WSW,248,3.5,6.1,22,0.00,,,0.00,WUHU216TE923,2013-02-17 18:58:00,
2013-02-17 14:03:00,46.6,10.6,30.08,NNE,23,3.6,7.6,23,0.00,,,0.00,WUHU216TE923,2013-02-17 19:03:00,
2013-02-17 14:08:00,46.8,9.8,30.08,NNE,23,3.3,7.6,22,0.00,,,0.00,WUHU216TE923,2013-02-17 19:08:00,
2013-02-17 14:13:00,47.5,11.4,30.08,North,0,2.8,5.0,23,0.00,,,0.00,WUHU216TE923,2013-02-17 19:13:00,
2013-02-17 14:18:00,46.9,9.9,30.08,NW,315,2.3,3.8,22,0.00,,,0.00,WUHU216TE923,2013-02-17 19:18:00,
2013-02-17 14:23:00,47.8,10.7,30.08,North,0,2.7,3.2,22,0.00,,,0.00,WUHU216TE923,2013-02-17 19:23:00,
2013-02-17 14:28:00,48.4,11.2,30.07,West,270,2.2,3.2,22,0.00,,,0.00,WUHU216TE923,2013-02-17 19:28:00,
2013-02-17 14:33:00,49.3,11.9,30.07,WNW,293,2.4,2.7,22,0.00,,,0.00,WUHU216TE923,2013-02-17 19:33:00,
2013-02-17 14:38:00,48.0,10.8,30.07,NNE,23,3.1,5.1,22,0.00,,,0.00,WUHU216TE923,2013-02-17 19:38:00,
2013-02-17 14:43:00,46.4,9.5,30.07,North,0,2.8,5.1,22,0.00,,,0.00,WUHU216TE923,2013-02-17 19:43:00,
2013-02-17 14:48:00,45.3,8.6,30.06,NW,315,2.6,2.8,22,0.00,,,0.00,WUHU216TE923,2013-02-17 19:48:00,
2013-02-17 14:53:00,44.8,8.1,30.06,NE,45,2.4,2.6,22,0.00,,,0.00,WUHU216TE923,2013-02-17 19:53:00,
2013-02-17 14:58:00,44.6,8.0,30.06,SW,225,2.3,5.3,22,0.00,,,0.00,WUHU216TE923,2013-02-17 19:58:00,
2013-02-17 15:03:00,44.6,8.0,30.06,NW,315,2.7,5.3,22,0.00,,,0.00,WUHU216TE923,2013-02-17 20:03:00,
2013-02-17 15:08:00,43.9,8.3,30.06,North,0,3.1,5.6,23,0.00,,,0.00,WUHU216TE923,2013-02-17 20:08:00,
2013-02-17 15:13:00,43.3,6.9,30.06,ESE,113,2.6,5.6,22,0.00,,,0.00,WUHU216TE923,2013-02-17 20:13:00,
2013-02-17 15:18:00,43.2,6.8,30.06,NNE,23,2.5,4.0,22,0.00,,,0.00,WUHU216TE923,2013-02-17 20:18:00,
2013-02-17 15:23:00,43.0,6.6,30.06,NE,45,2.8,4.0,22,0.00,,,0.00,WUHU216TE923,2013-02-17 20:23:00,
2013-02-17 15:28:00,43.0,7.6,30.06,NNE,23,2.8,2.8,23,0.00,,,0.00,WUHU216TE923,2013-02-17 20:28:00,
2013-02-17 15:34:00,43.0,7.6,30.06,NNE,23,2.4,2.8,23,0.00,,,0.00,WUHU216TE923,2013-02-17 20:34:00,
2013-02-17 15:39:00,43.2,7.8,30.06,NNE,23,2.1,3.4,23,0.00,,,0.00,WUHU216TE923,2013-02-17 20:39:00,
2013-02-17 15:44:00,43.0,6.6,30.06,NNE,23,2.2,3.4,22,0.00,,,0.00,WUHU216TE923,2013-02-17 20:44:00,
2013-02-17 15:49:00,42.8,6.5,30.06,NE,45,2.4,3.1,22,0.00,,,0.00,WUHU216TE923,2013-02-17 20:49:00,
2013-02-17 15:54:00,42.6,6.3,30.06,NW,315,2.2,4.3,22,0.00,,,0.00,WUHU216TE923,2013-02-17 20:54:00,
2013-02-17 15:59:00,42.8,7.4,30.06,SW,225,2.4,4.3,23,0.00,,,0.00,WUHU216TE923,2013-02-17 20:59:00,
2013-02-17 16:04:00,42.6,6.3,30.06,ENE,68,2.2,2.4,22,0.00,,,0.00,WUHU216TE923,2013-02-17 21:04:00,
2013-02-17 16:09:00,42.4,7.1,30.05,North,0,2.3,4.0,23,0.00,,,0.00,WUHU216TE923,2013-02-17 21:09:00,
2013-02-17 16:14:00,42.6,6.3,30.05,NNE,23,2.3,4.0,22,0.00,,,0.00,WUHU216TE923,2013-02-17 21:14:00,
2013-02-17 16:19:00,42.6,7.2,30.05,NNE,23,2.7,4.5,23,0.00,,,0.00,WUHU216TE923,2013-02-17 21:19:00,
2013-02-17 16:24:00,42.4,6.1,30.05,ENE,68,2.6,4.5,22,0.00,,,0.00,WUHU216TE923,2013-02-17 21:24:00,
2013-02-17 16:29:00,41.9,6.7,30.06,North,0,3.1,3.6,23,0.00,,,0.00,WUHU216TE923,2013-02-17 21:29:00,
2013-02-17 16:34:00,41.7,6.5,30.06,NNE,23,2.9,3.6,23,0.00,,,0.00,WUHU216TE923,2013-02-17 21:34:00,
2013-02-17 16:39:00,41.7,6.5,30.06,North,0,2.5,3.5,23,0.00,,,0.00,WUHU216TE923,2013-02-17 21:39:00,
2013-02-17 16:44:00,41.2,6.1,30.06,ESE,113,2.3,3.4,23,0.00,,,0.00,WUHU216TE923,2013-02-17 21:44:00,
2013-02-17 16:49:00,41.2,6.1,30.05,ENE,68,2.1,3.4,23,0.00,,,0.00,WUHU216TE923,2013-02-17 21:49:00,
2013-02-17 16:54:00,41.0,5.9,30.05,NNW,338,2.4,2.6,23,0.00,,,0.00,WUHU216TE923,2013-02-17 21:54:00,
2013-02-17 16:59:00,40.8,6.6,30.05,North,0,2.0,2.4,24,0.00,,,0.00,WUHU216TE923,2013-02-17 21:59:00,
2013-02-17 17:04:00,40.5,5.5,30.05,NNE,23,1.6,3.8,23,0.00,,,0.00,WUHU216TE923,2013-02-17 22:04:00,
2013-02-17 17:09:00,40.5,6.4,30.05,NNE,23,1.7,3.8,24,0.00,,,0.00,WUHU216TE923,2013-02-17 22:09:00,
2013-02-17 17:14:00,40.3,6.2,30.05,North,0,2.1,3.0,24,0.00,,,0.00,WUHU216TE923,2013-02-17 22:14:00,
2013-02-17 17:19:00,40.1,6.0,30.05,NNW,338,2.1,2.9,24,0.00,,,0.00,WUHU216TE923,2013-02-17 22:19:00,
2013-02-17 17:24:00,39.9,5.9,30.05,WSW,248,1.9,2.5,24,0.00,,,0.00,WUHU216TE923,2013-02-17 22:24:00,
2013-02-17 17:29:00,39.4,5.4,30.06,WSW,248,1.6,2.1,24,0.00,,,0.00,WUHU216TE923,2013-02-17 22:29:00,
2013-02-17 17:34:00,39.2,5.3,30.06,NW,315,1.8,1.8,24,0.00,,,0.00,WUHU216TE923,2013-02-17 22:34:00,
2013-02-17 17:39:00,39.2,5.3,30.06,NNE,23,1.0,1.8,24,0.00,,,0.00,WUHU216TE923,2013-02-17 22:39:00,
2013-02-17 17:44:00,39.0,6.0,30.06,NW,315,0.4,1.5,25,0.00,,,0.00,WUHU216TE923,2013-02-17 22:44:00,
2013-02-17 17:52:00,38.7,6.6,30.07,NNW,338,0.5,1.5,26,0.00,,,0.00,WUHU216TE923,2013-02-17 22:52:00,
2013-02-17 17:57:00,38.3,6.2,30.07,WSW,248,0.4,1.5,26,0.00,,,0.00,WUHU216TE923,2013-02-17 22:57:00,
2013-02-17 18:02:00,38.1,6.0,30.07,SW,225,0.2,1.1,26,0.00,,,0.00,WUHU216TE923,2013-02-17 23:02:00,
2013-02-17 18:07:00,37.8,6.6,30.08,WNW,293,0.0,1.1,27,0.00,,,0.00,WUHU216TE923,2013-02-17 23:07:00,
2013-02-17 18:12:00,37.6,6.4,30.08,WNW,293,0.0,0.0,27,0.00,,,0.00,WUHU216TE923,2013-02-17 23:12:00,
2013-02-17 18:17:00,36.9,8.1,30.08,WNW,293,0.0,0.0,30,0.00,,,0.00,WUHU216TE923,2013-02-17 23:17:00,
2013-02-17 18:22:00,36.7,7.9,30.08,WNW,293,0.0,0.0,30,0.00,,,0.00,WUHU216TE923,2013-02-17 23:22:00,
2013-02-17 18:26:00,36.3,7.6,30.08,SW,225,0.0,0.0,30,0.00,,,0.00,WUHU216TE923,2013-02-17 23:26:00,
2013-02-17 18:27:00,36.3,7.6,30.08,SW,225,0.0,0.0,30,0.00,,,0.00,WUHU216TE923,2013-02-17 23:27:00,
2013-02-17 18:36:00,35.6,7.7,30.08,SW,225,0.0,0.0,31,0.00,,,0.00,WUHU216TE923,2013-02-17 23:36:00,
2013-02-17 18:46:00,34.9,7.8,30.09,SW,225,0.0,0.0,32,0.00,,,0.00,WUHU216TE923,2013-02-17 23:46:00,
2013-02-17 18:51:00,34.9,7.8,30.09,SW,225,0.0,0.0,32,0.00,,,0.00,WUHU216TE923,2013-02-17 23:51:00,
2013-02-17 18:56:00,34.3,7.9,30.09,SW,225,0.0,0.0,33,0.00,,,0.00,WUHU216TE923,2013-02-17 23:56:00,
2013-02-17 19:01:00,34.3,7.9,30.09,SW,225,0.0,0.0,33,0.00,,,0.00,WUHU216TE923,2013-02-18 00:01:00,
2013-02-17 19:06:00,33.8,8.1,30.09,SW,225,0.0,0.0,34,0.00,,,0.00,WUHU216TE923,2013-02-18 00:06:00,
2013-02-17 19:11:00,33.8,8.1,30.09,SW,225,0.0,0.0,34,0.00,,,0.00,WUHU216TE923,2013-02-18 00:11:00,
2013-02-17 19:16:00,33.1,9.4,30.09,SW,225,0.0,0.0,37,0.00,,,0.00,WUHU216TE923,2013-02-18 00:16:00,
2013-02-17 19:21:00,33.1,9.4,30.09,SW,225,0.0,0.0,37,0.00,,,0.00,WUHU216TE923,2013-02-18 00:21:00,
2013-02-17 19:26:00,32.7,10.2,30.09,SW,225,0.0,0.0,39,0.00,,,0.00,WUHU216TE923,2013-02-18 00:26:00,
2013-02-17 19:31:00,32.7,10.2,30.09,SW,225,0.0,0.0,39,0.00,,,0.00,WUHU216TE923,2013-02-18 00:31:00,
2013-02-17 19:36:00,32.4,10.5,30.09,SW,225,0.0,0.0,40,0.00,,,0.00,WUHU216TE923,2013-02-18 00:36:00,
2013-02-17 19:41:00,32.4,10.5,30.09,SW,225,0.0,0.0,40,0.00,,,0.00,WUHU216TE923,2013-02-18 00:41:00,
2013-02-17 19:46:00,31.6,10.4,30.09,SW,225,0.0,0.0,41,0.00,,,0.00,WUHU216TE923,2013-02-18 00:46:00,
2013-02-17 19:51:00,31.6,10.4,30.09,SW,225,0.0,0.0,41,0.00,,,0.00,WUHU216TE923,2013-02-18 00:51:00,
2013-02-17 19:56:00,31.5,10.9,30.09,SW,225,0.0,0.0,42,0.00,,,0.00,WUHU216TE923,2013-02-18 00:56:00,
2013-02-17 20:01:00,31.5,10.9,30.09,SW,225,0.0,0.0,42,0.00,,,0.00,WUHU216TE923,2013-02-18 01:01:00,
2013-02-17 20:06:00,31.1,11.0,30.10,SW,225,0.0,0.0,43,0.00,,,0.00,WUHU216TE923,2013-02-18 01:06:00,
2013-02-17 20:11:00,31.1,11.0,30.10,SW,225,0.0,0.0,43,0.00,,,0.00,WUHU216TE923,2013-02-18 01:11:00,
2013-02-17 20:16:00,30.6,11.1,30.10,SW,225,0.0,0.0,44,0.00,,,0.00,WUHU216TE923,2013-02-18 01:16:00,
2013-02-17 20:21:00,30.6,11.1,30.10,SW,225,0.0,0.0,44,0.00,,,0.00,WUHU216TE923,2013-02-18 01:21:00,
2013-02-17 20:26:00,30.2,11.3,30.10,SW,225,0.0,0.0,45,0.00,,,0.00,WUHU216TE923,2013-02-18 01:26:00,
2013-02-17 20:31:00,30.2,11.3,30.10,SW,225,0.0,0.0,45,0.00,,,0.00,WUHU216TE923,2013-02-18 01:31:00,
2013-02-17 20:36:00,30.2,11.3,30.10,SW,225,0.0,0.0,45,0.00,,,0.00,WUHU216TE923,2013-02-18 01:36:00,
2013-02-17 20:41:00,30.2,11.3,30.10,SW,225,0.0,0.0,45,0.00,,,0.00,WUHU216TE923,2013-02-18 01:41:00,
2013-02-17 20:46:00,29.7,11.3,30.10,SW,225,0.0,0.0,46,0.00,,,0.00,WUHU216TE923,2013-02-18 01:46:00,
2013-02-17 20:51:00,29.7,11.3,30.10,SW,225,0.0,0.0,46,0.00,,,0.00,WUHU216TE923,2013-02-18 01:51:00,
2013-02-17 20:56:00,29.5,11.1,30.10,SW,225,0.0,0.0,46,0.00,,,0.00,WUHU216TE923,2013-02-18 01:56:00,
2013-02-17 21:01:00,29.5,11.1,30.10,SW,225,0.0,0.0,46,0.00,,,0.00,WUHU216TE923,2013-02-18 02:01:00,
2013-02-17 21:06:00,29.1,11.3,30.11,SW,225,0.0,0.0,47,0.00,,,0.00,WUHU216TE923,2013-02-18 02:06:00,
2013-02-17 21:11:00,29.1,11.3,30.11,SW,225,0.0,0.0,47,0.00,,,0.00,WUHU216TE923,2013-02-18 02:11:00,
2013-02-17 21:16:00,28.8,11.0,30.11,SW,225,0.0,0.0,47,0.00,,,0.00,WUHU216TE923,2013-02-18 02:16:00,
2013-02-17 21:21:00,28.8,11.0,30.11,SW,225,0.0,0.0,47,0.00,,,0.00,WUHU216TE923,2013-02-18 02:21:00,
2013-02-17 21:26:00,28.8,11.5,30.11,SW,225,0.0,0.0,48,0.00,,,0.00,WUHU216TE923,2013-02-18 02:26:00,
2013-02-17 21:32:00,28.6,11.3,30.11,SW,225,0.0,0.0,48,0.00,,,0.00,WUHU216TE923,2013-02-18 02:32:00,
2013-02-17 21:37:00,28.4,11.6,30.11,SW,225,0.0,0.0,49,0.00,,,0.00,WUHU216TE923,2013-02-18 02:37:00,
2013-02-17 21:42:00,28.4,11.6,30.11,SW,225,0.0,0.0,49,0.00,,,0.00,WUHU216TE923,2013-02-18 02:42:00,
2013-02-17 21:47:00,28.0,11.2,30.12,SW,225,0.0,0.0,49,0.00,,,0.00,WUHU216TE923,2013-02-18 02:47:00,
2013-02-17 21:52:00,28.0,11.2,30.12,SW,225,0.0,0.0,49,0.00,,,0.00,WUHU216TE923,2013-02-18 02:52:00,
2013-02-17 21:57:00,28.2,11.9,30.12,SW,225,0.0,0.0,50,0.00,,,0.00,WUHU216TE923,2013-02-18 02:57:00,
2013-02-17 22:02:00,28.2,11.9,30.12,SW,225,0.0,0.0,50,0.00,,,0.00,WUHU216TE923,2013-02-18 03:02:00,
2013-02-17 22:07:00,27.9,12.0,30.12,SW,225,0.0,0.0,51,0.00,,,0.00,WUHU216TE923,2013-02-18 03:07:00,
2013-02-17 22:12:00,27.9,12.0,30.12,SW,225,0.0,0.0,51,0.00,,,0.00,WUHU216TE923,2013-02-18 03:12:00,
2013-02-17 22:17:00,27.7,11.9,30.12,SW,225,0.0,0.0,51,0.00,,,0.00,WUHU216TE923,2013-02-18 03:17:00,
2013-02-17 22:22:00,27.7,11.9,30.12,SW,225,0.0,0.0,51,0.00,,,0.00,WUHU216TE923,2013-02-18 03:22:00,
2013-02-17 22:27:00,27.5,12.1,30.11,SW,225,0.0,0.0,52,0.00,,,0.00,WUHU216TE923,2013-02-18 03:27:00,
2013-02-17 22:32:00,27.5,12.1,30.11,SW,225,0.0,0.0,52,0.00,,,0.00,WUHU216TE923,2013-02-18 03:32:00,
2013-02-17 22:37:00,27.3,11.9,30.11,SW,225,0.0,0.0,52,0.00,,,0.00,WUHU216TE923,2013-02-18 03:37:00,
2013-02-17 22:42:00,27.3,11.9,30.11,SW,225,0.0,0.0,52,0.00,,,0.00,WUHU216TE923,2013-02-18 03:42:00,
2013-02-17 22:47:00,27.1,12.2,30.12,SW,225,0.0,0.0,53,0.00,,,0.00,WUHU216TE923,2013-02-18 03:47:00,
2013-02-17 22:52:00,27.1,12.2,30.12,SW,225,0.0,0.0,53,0.00,,,0.00,WUHU216TE923,2013-02-18 03:52:00,
2013-02-17 22:57:00,27.0,12.1,30.12,SW,225,0.0,0.0,53,0.00,,,0.00,WUHU216TE923,2013-02-18 03:57:00,
2013-02-17 23:02:00,27.0,12.1,30.12,SW,225,0.0,0.0,53,0.00,,,0.00,WUHU216TE923,2013-02-18 04:02:00,
2013-02-17 23:07:00,27.0,12.1,30.13,SW,225,0.0,0.0,53,0.00,,,0.00,WUHU216TE923,2013-02-18 04:07:00,
2013-02-17 23:12:00,27.0,12.1,30.13,SW,225,0.0,0.0,53,0.00,,,0.00,WUHU216TE923,2013-02-18 04:12:00,
2013-02-17 23:17:00,26.6,12.2,30.13,SW,225,0.0,0.0,54,0.00,,,0.00,WUHU216TE923,2013-02-18 04:17:00,
2013-02-17 23:22:00,26.6,12.2,30.13,SW,225,0.0,0.0,54,0.00,,,0.00,WUHU216TE923,2013-02-18 04:22:00,
2013-02-17 23:27:00,26.6,12.2,30.13,SW,225,0.0,0.0,54,0.00,,,0.00,WUHU216TE923,2013-02-18 04:27:00,
2013-02-17 23:32:00,26.6,12.2,30.13,SW,225,0.0,0.0,54,0.00,,,0.00,WUHU216TE923,2013-02-18 04:32:00,
2013-02-17 23:37:00,26.4,12.0,30.13,SW,225,0.0,0.0,54,0.00,,,0.00,WUHU216TE923,2013-02-18 04:37:00,
2013-02-17 23:42:00,26.4,12.0,30.13,SW,225,0.0,0.0,54,0.00,,,0.00,WUHU216TE923,2013-02-18 04:42:00,
2013-02-17 23:47:00,26.1,11.7,30.13,SW,225,0.0,0.0,54,0.00,,,0.00,WUHU216TE923,2013-02-18 04:47:00,
2013-02-17 23:52:00,26.1,11.7,30.13,SW,225,0.0,0.0,54,0.00,,,0.00,WUHU216TE923,2013-02-18 04:52:00,
2013-02-17 23:57:00,26.1,12.1,30.13,SW,225,0.0,0.0,55,0.00,,,0.00,WUHU216TE923,2013-02-18 04:57:00,